Virtual Norwegian is not affiliated with Norwegian Air Shuttle in any way.
If you are looking for the real "Norwegian", or you wish to book Norwegian flights, please visit Norwegian.com


We use cookies to ensure you get the best experience on our website.   ACCEPT

GCTS - TFS - Tenerife South (Reina Sofia)

General Info Alternate Airport
ICAO: GCTS Elevation: 209 ft ICAO: GCLP
IATA: TFS Country: Spain IATA: LPA
City: Tenerife South Charts: Log in to view charts City: Gran Canaria
Name: Reina Sofia Hub: Yes Name Gran Canaria
General Info
ICAO: GCTS
IATA: TFS
City: Tenerife South
Name: Reina Sofia
Elevation: 209 ft
Country: Spain
Charts: Log in to view charts
Hub: Yes
 
Alternate Airport
ICAO: GCLP
IATA: LPA
City: Gran Canaria
Name: Gran Canaria

Weather
192030Z 06017KT CAVOK 24/19 Q1013 WS R07 NOSIG
Weather
192030Z 06017KT CAVOK 24/19 Q1013 WS R07 NOSIG

Runway Info
08
Length ILS/LOC Course
3200 m 109.70 075
26
Length ILS/LOC Course
3200 m 110.90 255

NOTAMs
NOTAMs currently unavailable.
NOTAMs
NOTAMs currently unavailable

Route map
Airport
Airport (hub)